Location: Windsor
(43.2292°N, 89.3015°W)
Time: 04:18:59
(UTC+00:00)

MOZHAYETS 4 - Pass Details

Date: 03 July 2022
Orbit: 660 x 679 km, 98.2° (Epoch: 13 August)

Event Time Altitude Azimuth Distance (km) Brightness Sun altitude
Exits shadow 08:38:33 19° 186° (S) 1,596 9.2 -14.6°
Maximum altitude 08:41:45 55° 259° (W) 808 7.9 -14.3°
Drops below altitude 10° 08:46:17 10° 338° (NNW) 2,111 10.7 -13.8°
Sets 08:48:33 0° 343° (NNW) 3,027 11.6 -13.5°
